ONEWEB-0011, 44062

Orbit data source: Space-Track

ONEWEB-0011, 44062 is a payload satellite owned by One Web (UK) in LEO that was launched on Wed, 27 Feb 2019 UTC via a SOYUZ-ST-B launch vehicle from the French Guiana (FRGUI). Payload-class satellites include a variety of spacecraft equipped with specific instruments for various scientific and technological missions. These include communications satellites like Starlink; space stations such as the ISS; scientific satellites like the Hubble; Earth observation satellites from companies like Planet Labs, Umbra, and HawkEye 360; GPS; miniature CubeSats for education and research; and military/defense satellites.

Loading next visibility...
Identifier
44062, 2019-010F
Orbit
LEO
Country
Flag of UKUK
Related business
Manufacturer
Airbus/Toulouse
Mission
Operational Commercial Communications
Bus & Motor
ARROW, Unknown motor
Mass
148 kg wet, ~140 kg dry
Launch date (UTC)
2019-02-27 (7 years ago)
Launch vehicle
SOYUZ-ST-B
Launch site
French Guiana (FRGUI)
Object type
Payload
Rocket body
Debris
Shape & HBR
Trap Box + 2 Pan, 6.7 m
Radar Cross Section
3.464 m², Large (>1 m²)

Expand to show TLE details & history
Last TLE update: 12 hours ago

TLE from 12 hours ago
0 ONEWEB-0011
1 44062U 19010F   26038.17721814 -.00000086  00000-0 -26148-3 0  9997
2 44062  87.8990 285.1423 0001676  88.2286 271.9037 13.15547805334321
Epoch: 2026-02-07T04:15Z
TLE epoch observation values (Epoch: 2026-02-07T04:15:11.647Z)
Latitude
0.00006°
Longitude
84.03929°
Altitude
1,204.627 km
Speed
7.252 km/s
True Right ascension
19h 00m 34s
True Declination
0° 00' 00"
Sunlit
Object was in daylight at epoch
Visualization orbit readout
Latitude
Unknown
Longitude
Unknown
Altitude
Unknown
Speed
Unknown
Apparent Right ascension
Unknown
Apparent Declination
Unknown
Sunlit
N/A
Visualization observer readout
Local Sidereal Time
17:55:53
Azimuth
Unknown
Elevation
Unknown
Doppler factor
Unknown
Orbital elements
Apogee altitude
1,200.156 km
Perigee altitude
1,197.616 km
Semi-major axis
7,577.023 km
Eccentricity
0.00017
Inclination
87.899°
RAAN
285.1423°
Arg. of periapsis
88.2286°
True anomaly
271.8845°
Mean anomaly
271.9037°
Eccentric anomaly
271.8941°
Mean motion
3.29075 °/min
Orbital period
109.4 mins
BSTAR
-0.00026148
Loading maneuver chart data...
Computing Atmospheric mass density...
Loading historical data...
Loading historical data...
Loading historical data...
Loading historical data...
Loading historical data...
Loading historical data...
Loading historical data...
Other satellites on launch #10 in the year 2019 (2019-02-27 UTC)

Documentation

Showing up to 5 results
|